Wind_Speed
17 11 1 3 4 4 8 14 27 20 18 15 20 25 24 29 41 39 45 46 45 43 43 43 41 42 38 38 32 30 32 33 35 36 38 37 38 40 38 38 39 40 42 42 45 45 46 47 52
15 13 10 5 1 3 8 12 24 23 19 16 20 21 21 23 26 41 38 47 48 47 45 46 45 46 44 35 36 35 30 33 37 40 42 42 44 44 45 48 48 47 47 51 51 52 53 52 54
17 15 15 6 3 2 8 16 20 25 30 27 25 26 23 28 30 28 32 41 47 49 51 50 47 45 41 43 39 37 33 35 37 40 42 45 46 47 48 51 52 53 55 53 54 51 53 57 60
17 11 14 15 14 5 6 14 27 27 32 35 34 32 37 36 33 32 34 36 42 47 49 51 49 47 41 43 44 47 50 50 48 50 51 51 54 55 54 53 54 57 59 56 57 60 62 63 65
13 12 9 9 8 12 13 10 11 18 20 31 34 36 38 39 39 36 33 42 41 42 46 47 50 51 53 52 52 51 52 53 54 52 53 55 56 56 58 59 60 59 59 62 62 63 62 62 59
9 9 10 6 8 6 6 5 10 12 20 24 29 34 35 34 37 40 39 34 31 41 48 49 51 51 54 55 56 58 59 58 57 58 61 57 59 62 63 62 61 61 61 60 61 64 62 57 57
12 9 10 8 6 7 9 8 9 13 17 26 30 33 37 29 28 32 33 38 40 33 33 41 51 56 55 56 57 57 59 61 63 64 67 67 65 65 64 62 61 61 63 61 57 58 58 56 54
16 12 13 12 14 15 15 20 18 17 20 22 30 36 42 45 39 33 34 39 38 36 37 39 47 51 52 52 52 54 53 47 45 48 51 53 56 59 63 61 63 60 62 58 55 54 54 51 52
14 16 16 18 22 20 19 22 24 21 19 19 29 35 37 49 45 37 34 37 43 45 40 36 41 44 43 37 42 44 48 53 55 55 55 55 56 58 60 59 61 60 60 57 52 50 52 53 52
20 19 12 25 28 27 25 24 20 22 19 21 29 34 38 40 49 48 43 44 45 41 45 48 41 50 52 52 50 52 55 54 56 56 58 57 57 56 56 55 56 55 55 53 49 49 50 50 43
24 24 20 26 29 35 34 26 24 24 23 27 31 39 39 40 45 47 50 46 48 49 49 44 45 47 49 55 55 58 58 59 62 62 61 60 59 56 55 53 54 52 50 49 46 44 43 35 32
27 27 27 27 36 35 32 27 29 29 29 36 36 40 42 46 45 44 48 49 47 48 50 49 46 47 53 56 59 59 59 58 54 58 64 66 61 59 55 54 53 51 47 44 42 40 36 32 33
30 30 27 27 37 36 32 28 30 32 35 35 36 37 40 42 47 44 47 49 47 48 47 45 42 40 39 38 42 46 51 53 57 58 59 64 65 61 57 53 52 49 45 43 37 36 35 34 31
31 32 25 31 39 33 30 32 38 38 41 40 40 35 32 33 36 35 33 39 43 48 49 45 46 50 50 51 52 53 55 54 57 58 53 57 60 59 55 52 50 49 45 40 36 34 35 35 36
31 29 27 32 40 35 33 35 39 36 39 40 35 26 22 20 26 30 26 34 40 47 50 52 52 55 56 54 57 54 52 50 53 51 47 49 48 47 49 48 48 46 44 41 38 34 35 37 37
31 27 25 34 37 38 36 36 33 36 37 32 29 22 13 12 2 13 11 24 24 31 46 53 53 49 50 59 63 58 48 46 42 45 44 42 42 43 43 43 42 41 40 41 38 38 38 36 40
30 25 27 32 37 37 35 31 32 37 32 30 24 24 20 20 10 9 14 31 30 33 24 33 33 37 39 44 48 42 36 36 34 35 36 37 40 40 41 40 40 37 39 39 37 40 39 40 40
28 25 30 34 43 34 27 27 32 34 29 29 24 19 12 15 21 17 16 28 34 36 28 25 27 32 35 38 37 33 32 32 31 32 36 39 42 42 41 40 39 38 38 39 39 43 46 46 46
27 28 34 42 36 26 27 26 31 29 28 27 28 22 23 22 29 17 19 32 34 41 36 31 30 31 30 28 30 29 27 28 30 31 33 37 40 43 41 41 41 41 42 44 45 47 50 53 54
25 28 35 36 27 26 25 25 29 32 28 29 32 28 28 30 32 28 34 31 41 41 36 32 31 33 28 30 31 28 26 28 27 31 31 33 38 42 44 43 43 42 44 45 50 52 54 56 60
25 24 26 33 24 27 28 35 30 31 25 26 29 32 32 35 36 38 39 34 37 37 37 31 26 23 25 22 24 28 31 38 40 40 40 41 42 41 40 42 45 47 48 47 47 49 51 53 55
26 26 26 30 15 22 26 31 34 38 35 34 35 35 32 32 35 34 33 32 31 35 34 32 30 27 23 19 19 20 23 22 23 24 27 31 35 37 40 43 44 45 46 49 52 53 55 56 60
30 26 29 30 18 21 26 27 29 32 33 32 33 34 34 34 32 33 33 32 32 36 35 32 30 29 28 25 24 25 24 24 26 26 28 29 29 28 28 29 31 34 36 39 43 47 52 57 58
30 31 32 29 26 27 23 26 29 31 34 33 32 33 34 34 32 31 30 33 35 37 38 37 36 33 31 31 30 30 30 29 30 30 32 33 32 31 32 32 30 29 31 32 34 34 35 37 41
33 38 34 31 28 29 25 21 25 29 31 32 34 34 34 33 32 30 30 31 32 34 35 35 36 38 37 36 33 31 31 31 31 32 33 32 33 33 32 32 32 32 33 34 34 34 34 33 34
38 34 36 33 29 31 28 21 25 25 30 31 33 36 37 36 33 32 30 30 32 33 32 32 34 34 35 36 36 35 34 34 33 33 33 34 35 35 35 35 34 36 36 37 38 39 39 38 39
36 35 37 36 34 32 29 23 24 26 27 33 34 36 38 41 39 35 33 32 31 33 32 31 32 33 35 39 39 39 40 39 39 40 40 39 38 37 37 39 39 41 42 42 42 43 44 44 46
38 36 38 37 34 35 31 23 25 27 26 30 34 34 38 39 41 40 40 40 39 38 37 34 31 31 31 34 39 42 43 43 42 41 41 42 41 42 42 44 45 45 46 46 46 47 49 51 52
36 37 41 38 37 37 32 28 29 27 26 27 28 33 37 43 44 45 43 46 48 46 44 44 40 38 36 39 46 45 41 37 33 37 39 39 42 46 47 49 49 49 50 51 51 53 56 57 58
43 45 40 42 46 39 36 35 35 30 31 33 33 36 38 38 43 45 45 46 48 48 47 46 47 46 44 44 43 45 49 44 40 42 44 43 45 47 49 50 51 54 55 56 57 59 60 62 63
Wind_Direction
60 53 72 254 271 290 274 244 220 242 246 272 263 246 263 263 246 246 241 237 238 241 246 250 253 256 264 262 267 263 267 267 260 264 275 272 272 275 270 275 281 285 291 295 296 296 296 297 297
39 50 43 19 279 274 264 228 222 240 252 257 267 265 271 268 253 247 244 241 243 245 248 251 256 259 264 265 271 273 265 267 268 268 272 273 275 279 277 280 284 283 287 295 294 296 294 293 294
26 36 36 36 37 247 254 228 241 251 259 260 255 254 261 270 272 264 252 245 246 249 249 252 257 261 262 264 255 259 252 255 260 263 274 282 281 279 279 280 281 285 289 294 294 295 294 293 294
33 33 23 46 61 23 278 265 245 252 265 262 267 259 261 262 260 262 264 259 250 249 252 253 255 254 255 255 256 258 262 273 276 280 282 284 284 287 287 286 284 287 290 292 294 295 295 293 295
47 47 18 22 28 54 33 28 303 270 275 273 271 267 264 263 259 258 264 256 256 256 252 255 258 258 259 260 259 265 269 276 277 280 280 281 282 282 284 285 287 288 289 288 292 293 294 295 293
53 36 360 357 346 18 20 4 353 302 270 274 265 261 256 254 256 254 249 252 258 256 254 254 254 257 260 261 267 269 274 277 277 277 277 276 279 282 283 283 285 287 289 290 291 291 292 291 291
356 358 14 1 345 306 324 336 353 337 296 271 262 249 243 238 258 251 255 260 259 262 270 265 261 258 262 264 266 268 269 270 271 272 276 281 281 281 281 282 284 285 285 286 288 288 289 290 287
346 337 334 324 325 321 321 319 332 329 318 299 271 262 254 248 269 273 256 260 262 266 264 275 275 266 261 261 264 270 272 273 281 281 281 281 280 280 281 281 281 283 283 285 285 287 288 287 285
338 327 340 353 351 337 326 325 332 332 331 291 272 273 264 260 268 264 257 256 255 259 261 268 275 267 264 275 279 282 281 283 283 281 283 283 284 283 282 282 282 282 282 283 286 287 287 285 282
333 335 317 341 1 358 347 341 342 329 315 307 290 287 280 267 263 264 254 252 252 256 266 276 279 272 270 270 280 282 288 287 284 281 281 282 283 282 282 283 284 284 286 284 284 284 283 283 282
329 322 321 311 334 348 345 342 327 325 318 302 289 287 283 275 269 268 262 260 263 264 265 265 270 270 269 268 270 279 288 289 287 283 278 278 278 278 279 281 282 284 286 287 289 287 285 276 275
319 322 324 311 318 335 340 335 329 325 309 314 294 284 277 273 266 262 265 264 270 272 272 275 272 276 272 274 272 279 284 288 292 285 280 279 276 276 279 280 281 285 285 285 288 288 277 265 269
317 317 325 327 340 336 341 341 334 322 321 313 305 295 285 274 271 265 262 263 265 265 268 275 273 278 284 290 288 296 296 291 289 293 285 280 277 276 276 279 281 283 284 283 283 282 273 269 274
312 313 320 334 336 336 339 339 341 335 328 322 316 298 288 283 278 277 276 272 274 270 269 271 278 281 285 291 297 298 298 292 289 288 282 281 277 275 277 278 280 281 282 280 280 273 272 277 279
307 311 316 319 327 335 333 336 343 333 326 326 325 322 304 279 280 283 286 298 293 290 285 280 282 279 283 288 296 294 291 290 288 284 277 279 276 273 275 276 280 283 283 280 276 268 264 273 271
301 310 321 318 320 335 326 339 338 325 330 336 333 303 299 298 56 341 313 342 317 300 285 280 284 288 291 293 291 295 293 291 287 283 279 276 275 273 272 275 274 277 276 275 278 273 264 263 269
302 312 315 317 318 323 337 332 326 328 338 341 337 306 283 283 281 306 328 349 338 329 299 276 282 282 286 287 288 287 291 292 285 285 282 282 274 271 273 271 274 273 272 272 269 267 262 262 268
300 301 309 312 315 319 331 321 329 331 348 347 335 343 255 304 308 301 326 322 333 328 324 306 300 300 296 297 290 294 300 303 296 288 284 282 288 285 281 276 274 272 272 272 266 261 260 266 269
288 304 309 311 314 321 310 324 332 333 346 342 343 330 318 322 305 278 286 311 321 334 319 314 309 300 297 285 288 296 322 326 297 292 288 285 281 284 285 282 279 273 270 268 271 266 263 265 270
287 289 304 309 314 306 307 333 327 335 347 350 339 338 319 318 313 319 303 312 326 329 316 328 324 309 298 286 292 305 312 311 300 298 296 292 283 284 285 284 281 277 276 272 266 268 270 272 271
284 295 296 302 304 303 307 334 328 338 346 350 344 343 331 325 319 309 308 319 324 330 321 325 330 334 323 309 292 294 291 294 292 286 283 285 282 282 285 284 282 280 279 279 278 276 277 278 278
280 288 287 296 291 299 316 330 331 337 344 349 350 346 341 320 305 306 314 320 317 321 324 323 331 334 335 333 317 302 308 310 310 309 301 295 292 289 285 285 284 282 281 280 279 279 278 278 277
277 278 286 284 301 315 309 318 323 330 342 344 344 340 338 336 330 316 315 313 315 317 318 324 325 326 325 323 330 338 337 334 332 329 331 326 320 316 308 302 296 291 289 288 286 283 281 279 280
279 277 289 275 310 311 297 309 311 326 335 338 335 334 341 338 335 327 315 310 313 312 313 317 317 318 320 323 326 327 325 326 328 327 325 321 320 316 309 306 305 302 301 299 298 300 301 299 296
275 282 280 278 304 302 302 297 304 318 323 327 327 331 331 335 334 334 333 327 320 314 315 315 317 316 317 317 317 320 320 318 317 315 313 311 310 309 310 307 306 304 303 300 299 299 296 297 301
278 276 277 287 297 294 302 298 306 312 317 319 320 324 327 327 328 329 334 333 328 321 317 316 314 314 314 313 314 316 313 311 311 310 308 304 304 305 305 304 301 300 301 300 298 298 299 299 299
269 275 274 284 297 293 297 295 296 305 308 313 314 320 323 325 323 321 322 322 321 320 322 322 323 325 324 320 317 313 309 309 309 310 309 305 305 305 305 306 304 301 301 300 300 300 300 301 301
270 271 279 290 291 292 297 291 296 296 300 304 310 319 318 317 318 320 317 313 313 314 315 318 319 317 321 321 320 315 311 308 307 310 312 309 307 308 308 306 303 301 300 299 299 301 302 303 304
266 275 284 284 285 290 289 286 287 297 294 295 294 295 298 306 312 313 313 317 317 314 315 317 318 319 318 308 311 315 312 310 304 313 316 312 309 308 305 305 302 299 298 295 296 300 300 300 301
274 283 273 274 283 290 298 288 285 291 288 288 285 288 291 292 297 299 304 308 313 310 306 310 312 313 313 312 311 310 305 303 295 302 314 313 312 310 308 307 304 300 298 295 294 295 295 296 297
Height
10939 10939 10938 10940 10942 10942 10942 10941 10941 10941 10944 10945 10944 10946 10948 10946 10947 10946 10946 10946 10946 10946 10946 10945 10944 10943 10943 10943 10942 10942 10942 10941 10941 10941 10941 10942 10942 10942 10942 10942 10942 10942 10943 10945 10944 10943 10940 10934 10928
10940 10939 10939 10940 10941 10942 10940 10940 10940 10939 10940 10941 10940 10941 10940 10939 10939 10940 10939 10940 10940 10939 10938 10938 10937 10936 10937 10937 10936 10935 10934 10935 10935 10935 10935 10936 10936 10937 10936 10936 10935 10936 10936 10937 10937 10935 10932 10925 10922
10942 10941 10940 10940 10939 10939 10940 10939 10938 10937 10935 10934 10936 10937 10936 10933 10932 10932 10932 10932 10932 10932 10932 10932 10931 10930 10931 10931 10931 10930 10929 10929 10930 10930 10930 10930 10930 10931 10929 10928 10927 10928 10928 10929 10928 10925 10921 10915 10914
10944 10943 10942 10942 10940 10940 10940 10941 10937 10933 10930 10928 10930 10931 10930 10929 10928 10927 10925 10924 10924 10924 10925 10924 10923 10924 10923 10924 10924 10924 10924 10923 10923 10923 10922 10921 10922 10920 10919 10919 10918 10918 10919 10919 10918 10914 10910 10906 10903
10945 10944 10944 10942 10941 10940 10938 10938 10936 10934 10930 10925 10924 10924 10924 10924 10922 10922 10920 10918 10919 10918 10917 10917 10917 10918 10918 10918 10918 10917 10917 10916 10917 10915 10913 10912 10911 10910 10910 10909 10908 10908 10909 10911 10908 10901 10896 10894 10892
10945 10944 10944 10943 10941 10939 10937 10935 10933 10929 10926 10921 10921 10919 10919 10916 10913 10913 10912 10911 10910 10910 10911 10911 10911 10911 10910 10910 10909 10910 10908 10907 10906 10904 10903 10902 10901 10900 10899 10898 10897 10898 10898 10899 10897 10890 10886 10884 10883
10943 10943 10942 10942 10941 10938 10937 10934 10930 10927 10923 10918 10913 10912 10915 10910 10908 10905 10906 10907 10907 10907 10905 10904 10904 10903 10902 10903 10902 10902 10900 10897 10895 10894 10892 10892 10891 10889 10888 10886 10886 10887 10888 10888 10886 10879 10876 10875 10874
10941 10940 10939 10941 10941 10939 10934 10931 10927 10923 10919 10913 10907 10906 10907 10906 10901 10902 10902 10900 10901 10899 10898 10899 10898 10896 10895 10895 10894 10893 10891 10889 10888 10887 10885 10883 10881 10879 10878 10876 10876 10875 10876 10877 10876 10869 10866 10865 10863
10937 10937 10936 10936 10936 10933 10929 10924 10923 10919 10915 10909 10903 10896 10894 10896 10897 10895 10895 10894 10894 10892 10891 10890 10889 10889 10886 10887 10887 10886 10883 10882 10880 10879 10876 10874 10871 10870 10868 10867 10865 10865 10864 10866 10866 10860 10855 10855 10852
10934 10934 10932 10930 10932 10929 10925 10922 10920 10916 10911 10906 10897 10891 10887 10887 10883 10882 10883 10879 10881 10879 10879 10878 10879 10880 10879 10879 10877 10876 10874 10871 10870 10869 10866 10864 10860 10859 10857 10857 10854 10856 10853 10852 10854 10852 10846 10843 10842
10931 10931 10931 10927 10927 10924 10921 10918 10915 10911 10906 10899 10890 10879 10878 10873 10870 10868 10870 10869 10870 10868 10865 10865 10867 10868 10867 10868 10868 10866 10863 10861 10858 10857 10854 10852 10850 10847 10847 10847 10845 10846 10846 10840 10840 10840 10836 10834 10835
10927 10926 10927 10925 10921 10919 10914 10912 10909 10903 10894 10888 10881 10873 10869 10864 10861 10862 10860 10860 10861 10861 10859 10860 10860 10858 10858 10860 10860 10857 10854 10851 10848 10846 10842 10841 10839 10837 10837 10837 10836 10838 10837 10834 10830 10829 10827 10828 10828
10924 10922 10922 10921 10915 10912 10910 10906 10901 10895 10887 10880 10872 10864 10858 10857 10852 10853 10851 10851 10854 10855 10854 10852 10852 10850 10848 10849 10849 10847 10842 10839 10836 10833 10830 10828 10826 10825 10825 10825 10826 10827 10828 10827 10825 10822 10819 10820 10822
10920 10918 10917 10915 10911 10906 10905 10903 10895 10887 10876 10870 10861 10856 10850 10847 10843 10844 10845 10845 10844 10843 10844 10844 10842 10840 10841 10841 10838 10835 10831 10828 10823 10820 10819 10817 10815 10813 10813 10814 10814 10815 10817 10817 10818 10817 10813 10813 10814
10918 10914 10912 10910 10907 10904 10899 10894 10886 10880 10873 10862 10855 10850 10845 10844 10841 10842 10843 10841 10838 10835 10833 10833 10835 10833 10832 10829 10828 10826 10822 10816 10813 10809 10806 10806 10804 10803 10802 10803 10804 10805 10806 10806 10808 10811 10809 10806 10806
10912 10911 10908 10906 10902 10900 10896 10888 10882 10878 10869 10863 10856 10851 10847 10844 10845 10841 10840 10837 10830 10827 10825 10823 10823 10821 10820 10820 10819 10812 10809 10805 10803 10801 10799 10799 10795 10795 10793 10795 10796 10796 10796 10796 10796 10799 10801 10801 10800
10908 10907 10904 10903 10899 10895 10890 10884 10881 10877 10868 10861 10857 10852 10847 10843 10842 10838 10836 10833 10827 10824 10818 10812 10808 10809 10810 10808 10804 10799 10799 10795 10793 10792 10792 10789 10787 10787 10786 10785 10787 10788 10787 10788 10788 10788 10790 10792 10793
10904 10902 10900 10898 10896 10892 10888 10885 10879 10874 10865 10859 10855 10851 10848 10843 10840 10838 10834 10831 10826 10820 10816 10812 10806 10804 10804 10802 10799 10795 10790 10786 10785 10786 10783 10783 10780 10780 10780 10779 10778 10778 10778 10778 10779 10779 10779 10780 10781
10900 10898 10895 10892 10890 10888 10887 10883 10878 10873 10864 10860 10853 10848 10844 10839 10835 10832 10829 10828 10820 10815 10812 10807 10804 10803 10805 10806 10799 10793 10786 10784 10782 10781 10779 10777 10775 10773 10773 10773 10770 10770 10770 10769 10769 10769 10768 10768 10769
10897 10896 10892 10887 10882 10882 10884 10880 10875 10873 10863 10855 10850 10844 10838 10834 10829 10828 10825 10820 10815 10811 10809 10803 10800 10798 10800 10800 10796 10788 10780 10780 10779 10776 10774 10771 10768 10766 10764 10763 10762 10761 10760 10759 10759 10758 10757 10756 10756
10893 10893 10891 10887 10883 10877 10871 10870 10869 10868 10863 10856 10850 10841 10833 10826 10824 10822 10819 10813 10808 10806 10802 10800 10797 10793 10789 10787 10785 10783 10778 10775 10770 10767 10764 10762 10759 10758 10755 10752 10751 10750 10749 10748 10748 10747 10746 10745 10743
10889 10888 10887 10886 10882 10875 10865 10860 10852 10845 10846 10843 10840 10835 10830 10825 10821 10816 10811 10808 10807 10805 10800 10794 10789 10787 10784 10781 10776 10773 10770 10767 10764 10760 10756 10753 10749 10747 10744 10742 10740 10739 10737 10736 10735 10734 10732 10732 10729
10882 10883 10882 10882 10879 10872 10863 10860 10855 10849 10847 10841 10839 10836 10830 10821 10816 10810 10806 10807 10803 10799 10795 10789 10787 10782 10780 10778 10772 10767 10765 10760 10757 10754 10752 10748 10744 10741 10738 10735 10732 10729 10727 10725 10722 10721 10719 10717 10716
10873 10874 10876 10876 10876 10874 10867 10858 10851 10846 10839 10839 10836 10834 10829 10822 10816 10812 10809 10804 10798 10794 10789 10784 10782 10780 10777 10773 10769 10764 10761 10758 10754 10750 10747 10745 10741 10738 10734 10730 10727 10724 10720 10718 10715 10713 10711 10707 10704
10865 10866 10867 10868 10869 10867 10866 10861 10852 10844 10839 10834 10832 10829 10826 10823 10815 10809 10804 10800 10794 10790 10786 10782 10777 10774 10773 10769 10766 10761 10756 10753 10750 10747 10744 10741 10737 10734 10730 10725 10721 10717 10714 10711 10709 10706 10703 10700 10696
10856 10857 10859 10859 10860 10860 10860 10857 10849 10842 10836 10831 10827 10823 10820 10816 10812 10803 10798 10795 10791 10787 10784 10781 10777 10773 10769 10763 10758 10754 10751 10747 10745 10742 10739 10735 10730 10727 10724 10720 10716 10711 10707 10703 10700 10697 10694 10690 10687
10847 10849 10849 10850 10851 10852 10853 10851 10845 10840 10833 10826 10821 10816 10810 10806 10802 10800 10795 10791 10789 10785 10783 10778 10773 10768 10762 10756 10752 10749 10745 10741 10738 10734 10731 10727 10723 10718 10714 10710 10706 10703 10699 10695 10690 10686 10683 10679 10674
10839 10840 10840 10842 10844 10843 10844 10844 10841 10835 10831 10825 10816 10809 10804 10800 10795 10793 10789 10786 10786 10782 10777 10774 10769 10764 10758 10752 10747 10744 10738 10735 10732 10728 10724 10719 10714 10709 10705 10702 10697 10693 10688 10684 10680 10675 10670 10666 10661
10831 10832 10830 10831 10833 10836 10836 10836 10832 10832 10828 10824 10820 10814 10806 10797 10792 10787 10783 10777 10774 10771 10766 10761 10757 10752 10750 10746 10741 10737 10733 10728 10724 10720 10715 10710 10704 10699 10695 10691 10686 10682 10677 10673 10668 10663 10658 10653 10647
10822 10822 10822 10821 10821 10823 10826 10827 10826 10824 10821 10818 10814 10809 10803 10796 10788 10784 10781 10777 10768 10763 10758 10753 10745 10742 10740 10737 10734 10727 10719 10721 10714 10709 10704 10700 10694 10689 10683 10678 10673 10668 10663 10659 10654 10650 10644 10638 10632